period_start,C,m1,H,J0,J1,J2,J3,J4,J5,JA,JB,JC,JD,JJ,JK,JN,#
2013-12-30 00:00:06,0.33,1.20,0.00,19.39,24.47,25.69,5.93,30.67,1010.49,2050.00,3058.78,2997.14,3259.97,349.76,325.77,6.62,0000 0000 0000 0000 000000
2013-12-30 00:01:06,0.24,1.20,0.00,19.32,24.45,25.63,6.01,30.92,1010.51,2050.04,3058.12,2996.60,3259.41,350.19,325.77,6.62,0000 0000 0000 0000 000000
2013-12-30 00:02:06,0.37,1.21,0.00,19.26,24.43,25.57,6.15,31.46,1010.54,2050.11,3057.40,2996.20,3258.99,350.34,326.01,6.63,0000 0000 0000 0000 000000
2013-12-30 00:03:07,0.28,1.21,0.00,19.18,24.40,25.53,6.06,31.42,1010.54,2050.38,3056.61,2995.63,3258.38,349.85,326.09,6.64,0000 0000 0000 0000 000000
2013-12-30 00:04:07,0.59,1.21,0.00,19.10,24.37,25.48,6.03,31.63,1010.57,2050.63,3055.94,2995.22,3258.05,350.06,326.38,6.64,0000 0000 0000 0000 000000
2013-12-30 00:05:07,0.45,1.21,0.00,19.05,24.35,25.40,6.08,31.33,1010.64,2050.78,3055.26,2994.81,3257.51,350.27,326.66,6.65,0000 0000 0000 0000 000000
2013-12-30 00:06:07,0.37,1.22,0.00,19.00,24.32,25.32,6.02,31.29,1010.62,2050.90,3054.54,2994.31,3257.15,349.51,325.91,6.65,0000 0000 0000 0000 000000
2013-12-30 00:07:07,0.39,1.22,0.00,19.02,24.29,25.27,6.13,31.46,1010.71,2050.95,3053.81,2993.93,3256.64,351.41,327.79,6.66,0000 0000 0000 0000 000000
2013-12-30 00:08:08,0.31,1.22,0.00,19.03,24.26,25.21,6.10,31.21,1010.73,2050.98,3053.15,2993.38,3256.22,350.63,327.06,6.66,0000 0000 0000 0000 000000
2013-12-30 00:09:08,0.30,1.22,0.00,19.05,24.24,25.14,5.95,31.04,1010.74,2050.99,3052.49,2993.09,3255.84,348.62,325.17,6.67,0000 0000 0000 0000 000000
2013-12-30 00:10:08,0.24,1.22,0.00,19.02,24.21,25.10,6.08,31.00,1010.68,2050.99,3051.91,2992.56,3255.33,350.29,326.74,6.68,0000 0000 0000 0000 000000
2013-12-30 00:11:08,0.29,1.23,0.00,18.99,24.18,25.04,6.01,31.04,1010.53,2050.99,3051.28,2992.21,3254.92,348.96,325.47,6.68,0000 0000 0000 0000 000000
2013-12-30 00:12:09,0.23,1.23,0.00,19.00,24.15,24.97,6.09,31.17,1010.39,2051.00,3050.59,2991.96,3254.37,349.83,326.24,6.69,0000 0000 0000 0000 000000
2013-12-30 00:13:09,0.25,1.23,0.00,19.01,24.11,24.97,6.07,31.04,1010.34,2051.02,3050.03,2991.42,3254.13,350.75,327.06,6.69,0000 0000 0000 0000 000000
2013-12-30 00:14:09,0.27,1.23,0.00,19.02,24.09,24.93,6.01,31.29,1010.31,2051.14,3049.39,2991.13,3253.67,349.98,326.49,6.70,0000 0000 0000 0000 000000
2013-12-30 00:15:09,0.38,1.23,0.00,19.06,24.05,24.89,6.08,31.13,1010.30,2051.41,3048.66,2990.63,3253.24,349.67,326.39,6.71,0000 0000 0000 0000 000000
2013-12-30 00:16:10,0.51,1.23,0.00,19.01,24.02,24.86,6.05,30.79,1010.28,2051.75,3048.20,2990.23,3252.94,349.92,326.31,6.71,0000 0000 0000 0000 000000
2013-12-30 00:17:10,0.45,1.24,0.00,18.91,23.99,24.84,6.16,30.96,1010.29,2051.91,3047.40,2989.95,3252.41,350.14,326.59,6.72,0000 0000 0000 0000 000000
2013-12-30 00:18:10,0.38,1.24,0.00,18.88,23.96,24.81,6.05,31.50,1010.30,2051.95,3046.54,2989.39,3251.97,348.92,325.54,6.72,0000 0000 0000 0000 000000
2013-12-30 00:19:10,0.39,1.24,0.00,18.87,23.93,24.72,6.18,31.58,1010.30,2051.98,3045.94,2988.79,3251.39,350.86,327.53,6.73,0000 0000 0000 0000 000000
2013-12-30 00:20:11,0.33,1.24,0.00,18.82,23.90,24.69,5.97,31.25,1010.30,2051.99,3045.31,2988.29,3250.92,349.88,326.24,6.73,0000 0000 0000 0000 000000
2013-12-30 00:21:11,0.28,1.25,0.00,18.89,23.86,24.67,6.09,31.42,1010.28,2052.01,3044.63,2987.95,3250.36,350.47,326.77,6.74,0000 0000 0000 0000 000000
2013-12-30 00:22:11,0.28,1.25,0.00,18.97,23.83,24.62,5.93,31.42,1010.29,2052.01,3044.03,2987.42,3250.05,349.50,326.24,6.75,0000 0000 0000 0000 000000
2013-12-30 00:23:11,0.29,1.25,0.00,18.94,23.80,24.60,6.10,31.17,1010.28,2052.03,3043.07,2986.87,3249.50,350.07,326.42,6.75,0000 0000 0000 0000 000000
2013-12-30 00:24:12,0.36,1.25,0.00,18.92,23.77,24.59,6.08,31.25,1010.29,2052.17,3042.40,2986.32,3248.99,350.93,327.32,6.76,0000 0000 0000 0000 000000
2013-12-30 00:25:12,0.44,1.25,0.00,18.91,23.74,24.53,5.92,31.29,1010.27,2052.55,3041.87,2985.96,3248.39,349.49,325.97,6.76,0000 0000 0000 0000 000000
2013-12-30 00:26:12,0.54,1.26,0.00,18.90,23.71,24.51,6.04,31.38,1010.27,2052.81,3041.29,2985.41,3248.10,350.49,326.93,6.77,0000 0000 0000 0000 000000
2013-12-30 00:27:12,0.48,1.26,0.00,18.88,23.68,24.49,6.04,31.33,1010.27,2052.92,3040.67,2985.14,3247.54,349.19,325.73,6.78,0000 0000 0000 0000 000000
2013-12-30 00:28:13,0.31,1.26,0.00,18.85,23.65,24.42,6.16,31.46,1010.28,2052.96,3040.20,2984.70,3247.18,350.02,326.54,6.78,0000 0000 0000 0000 000000
2013-12-30 00:29:13,0.26,1.26,0.00,18.84,23.61,24.37,6.02,31.17,1010.27,2052.99,3039.55,2984.26,3246.77,349.61,326.16,6.79,0000 0000 0000 0000 000000
2013-12-30 00:30:13,0.27,1.26,0.00,18.84,23.58,24.35,6.05,31.38,1010.28,2053.00,3038.89,2984.05,3246.29,349.86,326.41,6.79,0000 0000 0000 0000 000000
2013-12-30 00:31:13,0.23,1.27,0.00,18.87,23.55,24.31,5.93,31.29,1010.29,2053.00,3038.21,2983.54,3245.94,349.30,325.85,6.80,0000 0000 0000 0000 000000
2013-12-30 00:32:14,0.28,1.27,0.00,18.87,23.52,24.28,6.10,31.42,1010.28,2053.01,3037.49,2983.18,3245.39,350.21,326.70,6.81,0000 0000 0000 0000 000000
2013-12-30 00:33:14,0.30,1.27,0.00,18.85,23.49,24.23,6.04,31.17,1010.28,2053.12,3036.92,2982.81,3245.07,350.12,326.46,6.81,0000 0000 0000 0000 000000
2013-12-30 00:34:14,0.32,1.27,0.00,18.82,23.46,24.22,6.01,31.38,1010.28,2053.31,3036.32,2982.31,3244.53,349.86,326.61,6.82,0000 0000 0000 0000 000000
2013-12-30 00:35:15,0.46,1.27,0.00,18.82,23.43,24.26,5.92,31.46,1010.27,2053.58,3035.64,2982.05,3244.16,349.75,326.31,6.82,0000 0000 0000 0000 000000
2013-12-30 00:36:15,0.40,1.28,0.00,18.83,23.39,24.23,5.97,31.42,1010.27,2053.82,3035.09,2981.52,3243.82,349.83,326.38,6.83,0000 0000 0000 0000 000000
2013-12-30 00:37:15,0.46,1.28,0.00,18.84,23.37,24.17,6.02,31.17,1010.27,2053.92,3034.46,2981.19,3243.32,349.72,326.26,6.83,0000 0000 0000 0000 000000
2013-12-30 00:38:15,0.34,1.28,0.00,18.84,23.34,24.12,6.02,31.58,1010.26,2053.97,3033.88,2980.92,3243.04,349.37,325.94,6.84,0000 0000 0000 0000 000000
2013-12-30 00:39:16,0.22,1.28,0.00,18.84,23.31,24.08,6.10,31.71,1010.26,2053.99,3033.24,2980.38,3242.52,349.49,326.05,6.85,0000 0000 0000 0000 000000
2013-12-30 00:40:16,0.32,1.28,0.00,18.85,23.27,24.07,6.07,31.50,1010.24,2053.99,3032.53,2980.10,3242.16,349.64,326.18,6.85,0000 0000 0000 0000 000000
2013-12-30 00:41:16,0.25,1.29,0.00,18.82,23.25,24.05,6.17,31.50,1010.27,2054.01,3031.94,2979.56,3241.69,350.70,327.08,6.86,0000 0000 0000 0000 000000
2013-12-30 00:42:16,0.29,1.29,0.00,18.82,23.21,24.06,6.09,31.71,1010.27,2054.08,3031.29,2979.20,3241.27,350.08,326.44,6.86,0000 0000 0000 0000 000000
2013-12-30 00:43:17,0.31,1.29,0.00,19.34,23.19,24.03,6.07,31.33,1010.26,2054.23,3030.61,2978.91,3241.04,350.55,326.50,6.87,0000 0000 0000 0000 000000
2013-12-30 00:44:17,0.36,1.29,0.00,19.80,23.16,24.02,5.90,31.21,1010.23,2054.54,3030.08,2978.41,3240.48,349.56,325.05,6.88,0000 0000 0000 0000 000000
2013-12-30 00:45:17,0.54,1.29,0.00,20.07,23.13,24.02,5.99,31.21,1010.15,2054.82,3029.42,2978.13,3240.16,349.38,324.64,6.88,0000 0000 0000 0000 000000
2013-12-30 00:46:18,0.45,1.30,0.00,20.24,23.10,24.09,6.02,31.21,1010.09,2054.92,3028.73,2977.60,3239.64,350.71,325.58,6.89,0000 0000 0000 0000 000000
2013-12-30 00:47:18,0.35,1.30,0.00,20.37,23.08,24.19,6.02,31.13,1010.17,2054.96,3028.18,2977.22,3239.24,350.29,325.43,6.89,0000 0000 0000 0000 000000
2013-12-30 00:48:18,0.27,1.30,0.00,20.47,23.05,24.22,5.84,31.08,1010.16,2054.98,3027.50,2976.84,3238.79,349.57,324.29,6.90,0000 0000 0000 0000 000000
2013-12-30 00:49:19,0.27,1.30,0.00,20.57,23.03,24.24,5.97,31.08,1010.17,2054.99,3026.93,2976.33,3238.30,350.00,324.59,6.90,0000 0000 0000 0000 000000
2013-12-30 00:50:19,0.27,1.30,0.00,20.65,23.00,24.26,5.92,31.25,1010.15,2054.99,3026.32,2976.06,3237.88,349.33,323.87,6.91,0000 0000 0000 0000 000000
2013-12-30 00:51:19,0.24,1.31,0.00,20.72,22.98,24.32,5.92,31.13,1010.18,2054.99,3025.65,2975.55,3237.34,351.25,325.27,6.92,0000 0000 0000 0000 000000
2013-12-30 00:52:19,0.30,1.31,0.00,20.79,22.95,24.33,5.88,31.08,1010.19,2055.02,3025.08,2975.19,3237.11,349.26,323.66,6.92,0000 0000 0000 0000 000000
2013-12-30 00:53:20,0.24,1.31,0.00,20.86,22.93,24.37,5.88,31.04,1010.17,2055.03,3024.42,2974.80,3236.69,349.18,323.49,6.93,0000 0000 0000 0000 000000
2013-12-30 00:54:20,0.30,1.31,0.00,20.95,22.91,24.43,5.83,31.21,1010.17,2055.23,3023.85,2974.33,3236.25,349.60,323.73,6.93,0000 0000 0000 0000 000000
2013-12-30 00:55:20,0.42,1.31,0.00,21.00,22.90,24.42,5.90,31.00,1010.24,2055.55,3023.20,2973.99,3235.92,349.89,324.02,6.94,0000 0000 0000 0000 000000
2013-12-30 00:56:20,0.53,1.32,0.00,21.06,22.87,24.48,6.03,31.25,1010.25,2055.76,3022.48,2973.41,3235.37,350.77,325.28,6.95,0000 0000 0000 0000 000000
2013-12-30 00:57:21,0.47,1.32,0.00,21.11,22.86,24.55,6.01,31.21,1010.24,2055.88,3021.83,2973.13,3235.05,349.86,324.21,6.95,0000 0000 0000 0000 000000
2013-12-30 00:58:21,0.32,1.32,0.00,21.16,22.84,24.54,6.08,31.21,1010.22,2055.94,3021.25,2972.61,3234.49,350.27,323.78,6.96,0000 0000 0000 0000 000000
2013-12-30 00:59:21,0.33,1.32,0.00,21.21,22.82,24.58,5.96,31.50,1010.21,2055.98,3020.57,2972.22,3234.13,349.92,323.69,6.96,0000 0000 0000 0000 000000
2013-12-30 01:00:21,0.29,1.32,0.00,21.26,22.80,24.59,5.77,30.88,1010.21,2055.99,3019.95,2971.76,3233.57,349.76,323.61,6.97,0000 0000 0000 0000 000000
2013-12-30 01:01:22,0.28,1.33,0.00,21.31,22.79,24.63,5.85,31.17,1010.18,2055.99,3019.28,2971.27,3233.16,349.72,323.51,6.98,0000 0000 0000 0000 000000
2013-12-30 01:02:22,0.29,1.33,0.00,21.36,22.77,24.63,5.99,31.00,1010.23,2055.99,3018.58,2970.89,3232.58,350.02,323.74,6.98,0000 0000 0000 0000 000000
2013-12-30 01:03:23,0.27,1.33,0.00,21.39,22.77,24.64,5.94,31.04,1010.20,2055.99,3017.87,2970.35,3232.17,349.80,323.50,6.99,0000 0000 0000 0000 000000
2013-12-30 01:04:23,0.30,1.33,0.00,21.44,22.75,24.69,5.88,31.04,1010.20,2055.99,3017.22,2969.94,3231.58,349.60,323.26,6.99,0000 0000 0000 0000 000000
2013-12-30 01:05:23,0.29,1.33,0.00,21.49,22.74,24.74,5.93,30.92,1010.19,2055.99,3016.52,2969.38,3231.15,349.89,323.57,7.00,0000 0000 0000 0000 000000
2013-12-30 01:06:23,0.31,1.34,0.00,21.53,22.73,24.79,6.02,31.00,1010.14,2056.03,3015.98,2969.00,3230.55,350.73,323.89,7.00,0000 0000 0000 0000 000000
2013-12-30 01:07:24,0.28,1.34,0.00,21.58,22.72,24.80,5.94,30.79,1010.12,2056.06,3015.36,2968.43,3230.10,349.88,323.30,7.01,0000 0000 0000 0000 000000
2013-12-30 01:08:24,0.36,1.34,0.00,21.63,22.72,24.85,6.00,31.00,1010.04,2056.09,3014.65,2968.08,3229.47,350.51,323.84,7.02,0000 0000 0000 0000 000000
2013-12-30 01:09:24,0.30,1.34,0.00,21.67,22.70,24.95,5.92,30.88,1010.03,2056.14,3014.02,2967.51,3229.05,350.34,323.89,7.02,0000 0000 0000 0000 000000
2013-12-30 01:10:24,0.34,1.34,0.00,21.70,22.70,24.95,5.79,30.83,1010.02,2056.30,3013.33,2967.13,3228.45,348.34,321.74,7.03,0000 0000 0000 0000 000000
2013-12-30 01:11:25,0.47,1.35,0.00,21.73,22.69,24.99,5.97,30.96,1009.98,2056.57,3012.59,2966.57,3228.07,350.36,323.58,7.03,0000 0000 0000 0000 000000
2013-12-30 01:12:25,0.47,1.35,0.00,21.76,22.69,25.01,5.94,31.17,1010.03,2056.69,3011.94,2966.18,3227.50,350.05,322.92,7.04,0000 0000 0000 0000 000000
2013-12-30 01:13:25,0.38,1.35,0.00,21.81,22.68,25.04,6.08,31.17,1010.07,2056.72,3011.24,2965.56,3227.02,350.37,323.52,7.05,0000 0000 0000 0000 000000
2013-12-30 01:14:26,0.36,1.35,0.00,21.83,22.67,25.08,6.03,30.75,1010.15,2056.82,3010.52,2965.13,3226.41,350.66,323.91,7.05,0000 0000 0000 0000 000000
2013-12-30 01:15:26,0.39,1.35,0.00,21.88,22.67,25.13,5.83,30.88,1010.26,2056.86,3009.81,2964.55,3225.90,348.48,321.57,7.06,0000 0000 0000 0000 000000
2013-12-30 01:16:26,0.34,1.36,0.00,21.91,22.67,25.13,5.97,30.67,1010.27,2056.93,3009.09,2964.16,3225.34,350.12,323.39,7.06,0000 0000 0000 0000 000000
2013-12-30 01:17:27,0.36,1.36,0.00,21.96,22.67,25.16,5.95,31.04,1010.27,2056.95,3008.38,2963.55,3224.75,349.85,322.94,7.07,0000 0000 0000 0000 000000
2013-12-30 01:18:27,0.34,1.36,0.00,22.00,22.67,25.16,5.84,30.75,1010.27,2056.95,3007.65,2963.14,3224.27,350.72,323.69,7.07,0000 0000 0000 0000 000000
2013-12-30 01:19:27,0.30,1.36,0.00,22.03,22.67,25.19,5.88,30.71,1010.24,2056.97,3007.08,2962.55,3223.70,349.87,322.69,7.08,0000 0000 0000 0000 000000
2013-12-30 01:20:28,0.30,1.37,0.00,22.08,22.67,25.22,6.07,31.13,1010.24,2056.98,3006.42,2962.18,3223.25,350.20,323.13,7.09,0000 0000 0000 0000 000000
2013-12-30 01:21:28,0.28,1.37,0.00,22.11,22.67,25.23,5.81,30.96,1010.24,2056.99,3005.77,2961.63,3222.68,349.19,322.16,7.09,0000 0000 0000 0000 000000
2013-12-30 01:22:28,0.29,1.37,0.00,22.13,22.67,25.27,5.84,30.92,1010.23,2056.99,3005.02,2961.13,3222.21,349.35,322.41,7.10,0000 0000 0000 0000 000000
2013-12-30 01:23:28,0.35,1.37,0.00,22.17,22.67,25.34,5.95,30.58,1010.22,2056.98,3004.34,2960.49,3221.60,351.40,324.15,7.10,0000 0000 0000 0000 000000
2013-12-30 01:24:29,0.32,1.37,0.00,22.18,22.67,25.38,5.98,30.75,1010.19,2056.98,3003.60,2960.09,3221.18,349.78,323.13,7.11,0000 0000 0000 0000 000000
2013-12-30 01:25:29,0.31,1.38,0.00,22.20,22.67,25.42,5.81,30.71,1010.22,2056.99,3002.93,2959.49,3220.54,349.87,322.58,7.12,0000 0000 0000 0000 000000
2013-12-30 01:26:29,0.32,1.38,0.00,22.26,22.68,25.46,6.03,31.00,1010.24,2056.99,3002.23,2959.04,3219.98,350.84,323.52,7.12,0000 0000 0000 0000 000000
2013-12-30 01:27:29,0.34,1.38,0.00,22.29,22.69,25.49,5.83,30.58,1010.26,2056.98,3001.44,2958.41,3219.39,349.07,321.85,7.13,0000 0000 0000 0000 000000
2013-12-30 01:28:30,0.34,1.38,0.00,22.32,22.69,25.52,5.95,30.92,1010.26,2056.99,3000.63,2957.91,3218.74,350.06,323.00,7.13,0000 0000 0000 0000 000000
2013-12-30 01:29:30,0.34,1.38,0.00,22.35,22.69,25.55,5.98,30.71,1010.25,2056.99,3000.01,2957.35,3218.22,350.51,323.12,7.14,0000 0000 0000 0000 000000
2013-12-30 01:30:30,0.33,1.38,0.00,22.37,22.69,25.55,5.95,30.79,1010.25,2056.99,2999.23,2956.85,3217.55,348.86,321.58,7.15,0000 0000 0000 0000 000000
2013-12-30 01:31:31,0.34,1.39,0.00,22.42,22.71,25.62,5.77,30.63,1010.21,2056.99,2998.45,2956.31,3217.05,349.90,322.47,7.15,0000 0000 0000 0000 000000
2013-12-30 01:32:31,0.35,1.39,0.00,22.45,22.72,25.67,5.75,30.58,1010.21,2056.99,2997.67,2955.68,3216.43,350.03,322.40,7.16,0000 0000 0000 0000 000000
2013-12-30 01:33:31,0.34,1.39,0.00,22.48,22.72,25.71,5.96,30.75,1010.09,2056.99,2996.84,2955.20,3215.82,349.80,322.27,7.16,0000 0000 0000 0000 000000
2013-12-30 01:34:32,0.35,1.39,0.00,22.50,22.72,25.76,5.87,30.71,1010.10,2056.99,2996.17,2954.54,3215.29,349.53,321.99,7.17,0000 0000 0000 0000 000000
2013-12-30 01:35:32,0.33,1.40,0.00,22.52,22.74,25.76,5.95,30.58,1010.12,2056.99,2995.41,2954.11,3214.74,349.93,322.34,7.17,0000 0000 0000 0000 000000
2013-12-30 01:36:32,0.34,1.40,0.00,22.54,22.74,25.79,5.92,30.67,1010.20,2056.99,2994.59,2953.49,3214.21,349.70,322.29,7.18,0000 0000 0000 0000 000000
2013-12-30 01:37:32,0.35,1.40,0.00,22.56,22.75,25.82,5.84,30.71,1010.25,2056.99,2993.77,2952.92,3213.52,349.57,322.01,7.19,0000 0000 0000 0000 000000
2013-12-30 01:38:33,0.35,1.40,0.00,22.58,22.77,25.84,5.92,30.88,1010.27,2056.98,2993.00,2952.32,3212.85,350.21,322.59,7.19,0000 0000 0000 0000 000000
2013-12-30 01:39:33,0.38,1.40,0.00,22.61,22.77,25.89,5.82,30.88,1010.27,2056.98,2992.20,2951.62,3212.23,349.78,322.23,7.20,0000 0000 0000 0000 000000
2013-12-30 01:40:33,0.37,1.41,0.00,22.64,22.78,25.92,5.94,30.50,1010.27,2056.96,2991.44,2951.14,3211.54,350.32,322.78,7.20,0000 0000 0000 0000 000000
2013-12-30 01:41:34,0.34,1.41,0.00,22.68,22.79,25.94,5.88,30.42,1010.27,2056.97,2990.73,2950.52,3211.05,350.36,322.63,7.21,0000 0000 0000 0000 000000
2013-12-30 01:42:34,0.32,1.41,0.00,22.68,22.80,26.01,5.89,30.63,1010.27,2056.94,2989.97,2950.03,3210.39,349.86,322.32,7.22,0000 0000 0000 0000 000000
2013-12-30 01:43:34,0.35,1.41,0.00,22.70,22.82,26.04,5.92,30.75,1010.27,2056.97,2989.21,2949.41,3209.73,350.22,322.47,7.22,0000 0000 0000 0000 000000
2013-12-30 01:44:34,0.37,1.41,0.00,22.73,22.82,26.04,5.88,30.42,1010.27,2056.97,2988.43,2948.85,3209.17,350.53,323.12,7.23,0000 0000 0000 0000 000000
2013-12-30 01:45:35,0.36,1.41,0.00,22.75,22.83,26.08,6.03,30.75,1010.27,2056.93,2987.65,2948.26,3208.50,350.52,322.70,7.23,0000 0000 0000 0000 000000
2013-12-30 01:46:35,0.33,1.42,0.00,22.78,22.84,26.11,5.90,30.42,1010.26,2056.92,2986.90,2947.58,3207.90,349.47,321.96,7.24,0000 0000 0000 0000 000000
2013-12-30 01:47:35,0.33,1.42,0.00,22.79,22.86,26.11,5.78,30.46,1010.26,2056.90,2986.18,2947.15,3207.32,349.30,321.87,7.24,0000 0000 0000 0000 000000
2013-12-30 01:48:36,0.34,1.42,0.00,22.80,22.87,26.13,5.97,30.46,1010.27,2056.84,2985.39,2946.53,3206.72,350.10,322.06,7.25,0000 0000 0000 0000 000000
2013-12-30 01:49:36,0.32,1.42,0.00,22.84,22.88,26.20,6.02,30.83,1010.26,2056.78,2984.58,2945.97,3206.14,351.39,323.41,7.26,0000 0000 0000 0000 000000
2013-12-30 01:50:36,0.28,1.42,0.00,22.84,22.89,26.13,5.77,30.50,1010.27,2056.60,2983.80,2945.37,3205.46,350.42,322.09,7.26,0000 0000 0000 0000 000000
2013-12-30 01:51:36,0.20,1.43,0.00,22.86,22.91,26.16,5.85,30.38,1010.27,2056.45,2982.97,2944.79,3204.80,349.87,322.00,7.27,0000 0000 0000 0000 000000
2013-12-30 01:52:36,0.24,1.43,0.00,22.88,22.92,26.18,5.87,30.54,1010.27,2056.30,2982.19,2944.28,3204.25,349.87,321.87,7.27,0000 0000 0000 0000 000000
2013-12-30 01:53:37,0.28,1.43,0.00,22.91,22.93,26.16,5.74,30.54,1010.27,2056.19,2981.31,2943.63,3203.57,350.13,322.16,7.28,0000 0000 0000 0000 000000
2013-12-30 01:54:37,0.27,1.43,0.00,22.92,22.94,26.15,5.82,30.33,1010.25,2056.11,2980.46,2943.09,3203.02,349.33,321.41,7.29,0000 0000 0000 0000 000000
2013-12-30 01:55:37,0.34,1.43,0.00,22.92,22.96,26.20,5.98,30.46,1010.21,2056.10,2979.65,2942.43,3202.40,350.24,322.23,7.29,0000 0000 0000 0000 000000
2013-12-30 01:56:38,0.31,1.44,0.00,22.95,22.97,26.19,5.83,30.25,1010.21,2056.05,2978.79,2941.87,3201.78,350.14,322.11,7.30,0000 0000 0000 0000 000000
2013-12-30 01:57:38,0.38,1.44,0.00,22.98,22.99,26.19,5.83,30.46,1010.19,2056.05,2977.89,2941.28,3201.14,349.66,321.64,7.30,0000 0000 0000 0000 000000
2013-12-30 01:58:38,0.39,1.44,0.00,22.98,23.00,26.23,5.93,30.58,1010.25,2056.04,2977.05,2940.58,3200.44,349.94,321.94,7.31,0000 0000 0000 0000 000000
2013-12-30 01:59:39,0.36,1.44,0.00,22.98,23.02,26.23,5.67,30.54,1010.25,2056.01,2976.26,2940.03,3199.83,348.87,320.86,7.32,0000 0000 0000 0000 000000
2013-12-30 02:00:39,0.38,1.44,0.00,23.00,23.03,26.25,5.92,30.75,1010.26,2056.00,2975.45,2939.40,3199.26,350.01,321.95,7.32,0000 0000 0000 0000 000000
2013-12-30 02:01:39,0.35,1.45,0.00,23.02,23.04,26.29,5.97,30.54,1010.25,2056.00,2974.58,2938.72,3198.59,349.96,321.88,7.33,0000 0000 0000 0000 000000
2013-12-30 02:02:39,0.38,1.45,0.00,23.05,23.06,26.30,5.73,30.46,1010.21,2056.00,2973.68,2938.19,3197.98,349.60,321.75,7.33,0000 0000 0000 0000 000000
2013-12-30 02:03:40,0.38,1.45,0.00,23.07,23.07,26.31,5.88,30.83,1010.08,2056.00,2972.89,2937.51,3197.36,350.27,322.05,7.34,0000 0000 0000 0000 000000
2013-12-30 02:04:40,0.36,1.45,0.00,23.09,23.09,26.34,5.79,30.67,1010.07,2056.00,2971.94,2936.90,3196.68,349.30,321.33,7.34,0000 0000 0000 0000 000000
2013-12-30 02:05:40,0.41,1.46,0.00,23.12,23.10,26.38,5.98,30.54,1010.15,2056.00,2971.11,2936.31,3196.12,350.52,322.24,7.35,0000 0000 0000 0000 000000
2013-12-30 02:06:40,0.39,1.46,0.00,23.11,23.12,26.39,5.93,30.71,1010.16,2056.00,2970.30,2935.61,3195.43,350.24,322.01,7.36,0000 0000 0000 0000 000000
2013-12-30 02:07:41,0.38,1.46,0.00,23.14,23.13,26.39,5.98,30.58,1010.19,2056.00,2969.50,2934.97,3194.70,350.31,322.37,7.36,0000 0000 0000 0000 000000
2013-12-30 02:08:41,0.41,1.46,0.00,23.16,23.15,26.41,5.77,30.67,1010.20,2056.00,2968.66,2934.35,3194.07,349.87,321.66,7.37,0000 0000 0000 0000 000000
2013-12-30 02:09:41,0.38,1.46,0.00,23.17,23.16,26.43,5.96,30.92,1010.18,2056.00,2967.77,2933.69,3193.38,350.16,321.57,7.37,0000 0000 0000 0000 000000
2013-12-30 02:10:42,0.39,1.47,0.00,23.18,23.18,26.46,5.85,30.54,1010.18,2056.00,2966.91,2933.09,3192.63,350.43,322.11,7.38,0000 0000 0000 0000 000000
2013-12-30 02:11:42,0.41,1.47,0.00,23.19,23.19,26.49,5.94,30.67,1010.21,2056.00,2966.11,2932.43,3192.04,350.31,322.00,7.39,0000 0000 0000 0000 000000
2013-12-30 02:12:42,0.38,1.47,0.00,23.21,23.21,26.49,5.96,30.67,1010.15,2056.00,2965.28,2931.84,3191.37,349.51,321.35,7.39,0000 0000 0000 0000 000000
2013-12-30 02:13:42,0.38,1.47,0.00,23.22,23.22,26.52,5.88,30.63,1010.16,2055.97,2964.42,2931.23,3190.64,350.17,321.82,7.40,0000 0000 0000 0000 000000
2013-12-30 02:14:43,0.36,1.48,0.00,23.25,23.24,26.54,6.03,30.67,1010.18,2055.96,2963.57,2930.55,3190.04,350.94,322.51,7.40,0000 0000 0000 0000 000000
2013-12-30 02:15:43,0.37,1.48,0.00,23.26,23.25,26.55,5.88,30.75,1010.21,2055.90,2962.72,2930.01,3189.35,349.83,321.49,7.41,0000 0000 0000 0000 000000
2013-12-30 02:16:44,0.32,1.48,0.00,23.27,23.27,26.55,6.05,30.46,1010.24,2055.74,2961.92,2929.39,3188.62,350.81,322.13,7.41,0000 0000 0000 0000 000000
2013-12-30 02:17:44,0.26,1.48,0.00,23.28,23.29,26.58,5.84,30.38,1010.26,2055.69,2961.21,2928.76,3188.05,349.66,321.33,7.42,0000 0000 0000 0000 000000
2013-12-30 02:18:44,0.33,1.48,0.00,23.29,23.30,26.59,5.74,30.38,1010.24,2055.60,2960.43,2928.22,3187.37,349.24,320.58,7.43,0000 0000 0000 0000 000000
2013-12-30 02:19:44,0.27,1.49,0.00,23.29,23.32,26.62,5.86,30.33,1010.22,2055.33,2959.59,2927.51,3186.63,350.20,321.80,7.43,0000 0000 0000 0000 000000
2013-12-30 02:20:45,0.20,1.49,0.00,23.31,23.33,26.64,5.91,30.67,1010.14,2055.21,2958.80,2926.98,3186.17,350.39,321.44,7.44,0000 0000 0000 0000 000000
2013-12-30 02:21:45,0.24,1.49,0.00,23.30,23.34,26.67,5.72,30.33,1010.08,2055.13,2958.18,2926.39,3185.57,349.27,320.88,7.44,0000 0000 0000 0000 000000
2013-12-30 02:22:45,0.27,1.49,0.00,23.30,23.36,26.70,5.90,30.54,1009.99,2055.12,2957.47,2926.02,3185.18,348.95,320.42,7.45,0000 0000 0000 0000 000000
2013-12-30 02:23:45,0.24,1.49,0.00,23.33,23.37,26.70,5.86,30.54,1009.94,2055.07,2956.71,2925.43,3184.71,350.42,321.86,7.46,0000 0000 0000 0000 000000
2013-12-30 02:24:46,0.30,1.49,0.00,23.33,23.39,26.72,5.83,30.42,1009.88,2055.05,2956.13,2925.13,3184.26,349.04,320.69,7.46,0000 0000 0000 0000 000000
2013-12-30 02:25:46,0.22,1.49,0.00,23.34,23.41,26.75,5.98,30.58,1009.89,2055.02,2955.49,2924.62,3183.96,350.95,322.14,7.47,0000 0000 0000 0000 000000
2013-12-30 02:26:46,0.25,1.50,0.00,23.36,23.42,26.78,5.89,30.63,1009.83,2055.00,2954.95,2924.22,3183.39,350.23,321.63,7.47,0000 0000 0000 0000 000000
2013-12-30 02:27:47,0.25,1.50,0.00,23.41,23.44,26.80,6.03,30.38,1009.81,2055.00,2954.34,2923.81,3183.08,350.02,321.37,7.48,0000 0000 0000 0000 000000
2013-12-30 02:28:47,0.25,1.50,0.00,23.40,23.46,26.83,5.88,30.58,1009.83,2055.00,2953.81,2923.30,3182.55,350.58,321.91,7.49,0000 0000 0000 0000 000000
2013-12-30 02:29:47,0.28,1.50,0.00,23.39,23.47,26.80,5.87,30.58,1009.87,2055.00,2953.22,2922.87,3182.17,350.74,322.07,7.49,0000 0000 0000 0000 000000
2013-12-30 02:30:47,0.28,1.50,0.00,23.39,23.49,26.83,5.89,30.88,1009.88,2055.00,2952.54,2922.34,3181.59,350.54,321.89,7.50,0000 0000 0000 0000 000000
2013-12-30 02:31:48,0.30,1.50,0.00,23.43,23.50,26.83,5.86,30.79,1009.84,2055.00,2951.97,2921.97,3181.18,350.06,321.39,7.50,0000 0000 0000 0000 000000
2013-12-30 02:32:48,0.28,1.51,0.00,23.42,23.52,26.87,5.77,30.88,1009.83,2055.00,2951.36,2921.43,3180.63,349.86,321.21,7.51,0000 0000 0000 0000 000000
2013-12-30 02:33:48,0.29,1.51,0.00,23.46,23.53,26.89,6.00,30.96,1009.81,2055.00,2950.84,2921.13,3180.22,351.11,322.32,7.51,0000 0000 0000 0000 000000
2013-12-30 02:34:48,0.21,1.51,0.00,23.46,23.55,26.90,5.87,30.79,1009.81,2054.98,2950.29,2920.63,3179.73,350.10,321.70,7.52,0000 0000 0000 0000 000000
2013-12-30 02:35:48,0.29,1.51,0.00,23.49,23.57,26.94,5.97,30.21,1009.78,2054.98,2949.62,2920.18,3179.18,350.86,322.01,7.53,0000 0000 0000 0000 000000
2013-12-30 02:36:48,0.31,1.51,0.00,23.49,23.58,26.96,5.88,30.92,1009.78,2054.98,2948.86,2919.57,3178.52,349.64,320.93,7.53,0000 0000 0000 0000 000000